KC4YLE Weather Reports


time (UTC)temp
C
wind
direction
speed
KPH
gust
KPH
rain 1hr
cm
rain 24hr
cm
rain mn
cm
humidity
%
barometer
mb
20260505094023 11 210 0.0 0.0 0.00 0.00 0.00 78 1015.0
20260505093527 11 210 0.0 0.0 0.00 0.00 0.00 78 1014.8
20260505093029 11 210 0.0 0.0 0.00 0.00 0.00 78 1014.7
20260505092532 12 210 0.0 0.0 0.00 0.00 0.00 78 1014.8
20260505092056 12 210 0.0 0.0 0.00 0.00 0.00 78 1014.7
20260505091557 12 210 0.0 0.0 0.00 0.00 0.00 77 1014.7
20260505091025 12 210 0.0 0.0 0.00 0.00 0.00 77 1014.6
20260505090528 12 210 0.0 0.0 0.00 0.00 0.00 77 1014.6
20260505090033 12 210 0.0 0.0 0.00 0.00 0.00 77 1014.5
20260505085536 12 210 0.0 0.0 0.00 0.00 0.00 76 1014.5
20260505085040 12 210 0.0 0.0 0.00 0.00 0.00 76 1014.5
20260505084523 12 210 0.0 0.0 0.00 0.00 0.00 76 1014.5
20260505084046 12 210 0.0 0.0 0.00 0.00 0.00 76 1014.5
20260505083549 13 210 0.0 0.0 0.00 0.00 0.00 75 1014.4
20260505083033 13 210 0.0 0.0 0.00 0.00 0.00 75 1014.4
20260505082536 13 210 0.0 1.6 0.00 0.00 0.00 75 1014.4
20260505082100 13 210 0.0 1.6 0.00 0.00 0.00 75 1014.4
20260505081603 13 210 0.0 1.6 0.00 0.00 0.00 74 1014.4
20260505081026 13 211 0.0 1.6 0.00 0.00 0.00 74 1014.4
20260505080530 13 211 0.0 1.6 0.00 0.00 0.00 74 1014.4
20260505080035 13 211 0.0 6.4 0.00 0.00 0.00 74 1014.3
20260505075542 13 218 0.0 6.4 0.00 0.00 0.00 73 1014.3
20260505075025 13 230 0.0 1.6 0.00 0.00 0.00 73 1014.2
20260505074529 13 230 0.0 1.6 0.00 0.00 0.00 73 1014.2
20260505074032 13 230 0.0 1.6 0.00 0.00 0.00 72 1014.2
20260505073536 13 230 0.0 4.8 0.00 0.00 0.00 72 1014.2
20260505073040 14 230 1.6 4.8 0.00 0.00 0.00 72 1014.2
20260505072524 14 176 0.0 8.0 0.00 0.00 0.00 71 1014.2
20260505072027 14 215 1.6 8.0 0.00 0.00 0.00 71 1014.1
20260505071531 14 265 0.0 6.4 0.00 0.00 0.00 71 1014.1
20260505071036 14 259 0.0 6.4 0.00 0.00 0.00 70 1014.1
20260505070524 14 231 0.0 4.8 0.00 0.00 0.00 70 1014.0
20260505070046 15 229 0.0 1.6 0.00 0.00 0.00 69 1013.9
20260505065548 15 229 0.0 1.6 0.00 0.00 0.00 70 1013.9
20260505065032 15 229 0.0 3.2 0.00 0.00 0.00 69 1014.0
20260505064535 15 229 0.0 4.8 0.00 0.00 0.00 69 1014.0
20260505064039 15 229 0.0 4.8 0.00 0.00 0.00 69 1014.0
20260505063524 15 297 0.0 8.0 0.00 0.00 0.00 69 1013.9
20260505063027 15 286 0.0 8.0 0.00 0.00 0.00 69 1013.9
20260505062531 15 213 0.0 4.8 0.00 0.00 0.00 69 1013.9
20260505062033 15 225 0.0 3.2 0.00 0.00 0.00 68 1013.9
20260505061557 15 225 0.0 1.6 0.00 0.00 0.00 68 1013.9
20260505061037 15 225 0.0 4.8 0.00 0.00 0.00 68 1013.9
20260505060540 15 236 0.0 4.8 0.00 0.00 0.00 67 1013.9
20260505060045 15 293 0.0 6.4 0.00 0.00 0.00 67 1013.9
20260505055549 15 293 0.0 6.4 0.00 0.00 0.00 67 1014.0
20260505055033 15 288 0.0 4.8 0.00 0.00 0.00 66 1013.9
20260505054558 15 221 0.0 8.0 0.00 0.00 0.00 66 1013.9
20260505054025 15 259 1.6 8.0 0.00 0.00 0.00 65 1013.9
20260505053528 15 144 0.0 1.6 0.00 0.00 0.00 65 1013.9
20260505053033 16 145 0.0 4.8 0.00 0.00 0.00 64 1013.9
20260505052538 16 143 0.0 4.8 0.00 0.00 0.00 64 1013.9
20260505052043 16 150 0.0 3.2 0.00 0.00 0.00 64 1014.0
20260505051526 16 134 0.0 8.0 0.00 0.00 0.00 64 1014.1
20260505051051 16 133 1.6 8.0 0.00 0.00 0.00 64 1014.2
20260505050535 16 250 1.6 12.9 0.00 0.00 0.00 63 1014.2
20260505041535 16 267 1.6 8.0 0.00 0.00 0.00 58 1014.2
20260505041039 16 232 0.0 6.4 0.00 0.00 0.00 57 1014.1
20260505040542 16 265 1.6 9.7 0.00 0.00 0.00 56 1014.1
20260505040026 16 168 1.6 9.7 0.00 0.00 0.00 56 1014.1
20260505035530 16 184 0.0 4.8 0.00 0.00 0.00 56 1014.1
20260505035034 16 207 1.6 6.4 0.00 0.00 0.00 56 1014.2
20260505034542 16 212 0.0 6.4 0.00 0.00 0.00 56 1014.2
20260505034026 16 223 1.6 8.0 0.00 0.00 0.00 56 1014.2
20260505033551 16 213 1.6 8.0 0.00 0.00 0.00 56 1014.0
20260505033055 16 186 0.0 9.7 0.00 0.00 0.00 55 1014.0
20260505032539 16 140 1.6 9.7 0.00 0.00 0.00 56 1014.1
20260505032043 16 191 0.0 14.5 0.00 0.00 0.00 56 1014.1
20260505031527 16 188 0.0 4.8 0.00 0.00 0.00 56 1014.0
20260505031031 16 238 0.0 4.8 0.00 0.00 0.00 55 1014.1
20260505030535 16 262 0.0 6.4 0.00 0.00 0.00 56 1014.0
20260505030039 16 162 1.6 8.0 0.00 0.00 0.00 56 1014.1
20260505025543 16 192 1.6 8.0 0.00 0.00 0.00 57 1014.0
20260505025026 16 190 0.0 12.9 0.00 0.00 0.00 57 1014.1
20260505024535 16 190 1.6 12.9 0.00 0.00 0.00 57 1014.0
20260505024039 16 226 0.0 11.3 0.00 0.00 0.00 56 1014.0
20260505023523 16 153 0.0 4.8 0.00 0.00 0.00 57 1014.0
20260505023028 16 323 0.0 9.7 0.00 0.00 0.00 57 1013.9
20260505022533 16 174 0.0 9.7 0.00 0.00 0.00 58 1013.9
20260505022037 16 221 0.0 6.4 0.00 0.00 0.00 58 1013.9
20260505021541 15 202 0.0 4.8 0.00 0.00 0.00 58 1013.9
20260505021025 15 198 0.0 4.8 0.00 0.00 0.00 59 1013.9
20260505020529 15 212 0.0 6.4 0.00 0.00 0.00 60 1013.8
20260505020033 15 211 1.6 6.4 0.00 0.00 0.00 61 1013.7
20260505015558 16 219 0.0 4.8 0.00 0.00 0.00 62 1013.7
20260505015026 16 229 0.0 3.2 0.00 0.00 0.00 63 1013.8
20260505014551 16 234 0.0 3.2 0.00 0.00 0.00 64 1013.7
20260505014054 16 102 0.0 0.0 0.00 0.00 0.00 64 1013.6
20260505013537 16 102 0.0 0.0 0.00 0.00 0.00 62 1013.5
20260505013041 16 102 0.0 0.0 0.00 0.00 0.00 61 1013.4
20260505012526 16 102 0.0 0.0 0.00 0.00 0.00 60 1013.2
20260505012030 17 102 0.0 0.0 0.00 0.00 0.00 59 1013.2
20260505011553 17 102 0.0 0.0 0.00 0.00 0.00 58 1013.1
20260505011036 17 102 0.0 0.0 0.00 0.00 0.00 58 1013.2
20260505010540 18 102 0.0 0.0 0.00 0.00 0.00 56 1013.1
20260505010024 18 102 0.0 0.0 0.00 0.00 0.00 55 1013.1
20260505005529 18 102 0.0 0.0 0.00 0.00 0.00 54 1013.1
20260505005033 18 102 0.0 0.0 0.00 0.00 0.00 54 1013.0
20260505004537 19 102 0.0 0.0 0.00 0.00 0.00 52 1012.9
20260505004025 19 102 0.0 0.0 0.00 0.00 0.00 51 1012.9
20260505003530 20 102 0.0 0.0 0.00 0.00 0.00 50 1012.8
20260505003035 20 102 0.0 0.0 0.00 0.00 0.00 49 1012.8
20260505002539 20 102 0.0 0.0 0.00 0.00 0.00 48 1012.7
20260505002043 21 102 0.0 1.6 0.00 0.00 0.00 47 1012.7
20260505001526 21 102 0.0 1.6 0.00 0.00 0.00 46 1012.7
20260505001050 21 102 0.0 0.0 0.00 0.00 0.00 46 1012.7
20260505000534 21 102 0.0 0.0 0.00 0.00 0.00 46 1012.6
20260505000038 22 216 0.0 0.0 0.00 0.00 0.00 46 1012.6
20260504235543 22 216 0.0 0.0 0.00 0.00 0.00 45 1012.6
20260504235027 22 216 0.0 0.0 0.00 0.00 0.00 45 1012.5
20260504234536 22 216 0.0 1.6 0.00 0.00 0.00 44 1012.4
20260504234041 22 216 0.0 0.0 0.00 0.00 0.00 44 1012.4
20260504233523 22 216 0.0 1.6 0.00 0.00 0.00 44 1012.3
20260504233028 22 216 0.0 0.0 0.00 0.00 0.00 43 1012.3
20260504232532 23 216 0.0 1.6 0.00 0.00 0.00 43 1012.3
20260504232036 23 216 0.0 6.4 0.00 0.00 0.00 42 1012.3
20260504231541 23 276 1.6 6.4 0.00 0.00 0.00 40 1012.4
20260504231025 23 30 1.6 6.4 0.00 0.00 0.00 40 1012.3
20260504230530 23 355 0.0 3.2 0.00 0.00 0.00 40 1012.3
20260504230033 23 355 0.0 8.0 0.00 0.00 0.00 40 1012.3
20260504225538 23 202 0.0 8.0 0.00 0.00 0.00 41 1012.3
20260504225046 23 159 0.0 6.4 0.00 0.00 0.00 39 1012.3
20260504224530 23 232 0.0 9.7 0.00 0.00 0.00 39 1012.3
20260504224035 23 111 1.6 11.3 0.00 0.00 0.00 39 1012.3
20260504223539 24 126 0.0 8.0 0.00 0.00 0.00 38 1012.3
20260504223103 24 256 0.0 6.4 0.00 0.00 0.00 38 1012.3
20260504222526 24 126 1.6 8.0 0.00 0.00 0.00 38 1012.3
20260504222031 24 261 0.0 9.7 0.00 0.00 0.00 38 1012.3
20260504221554 24 273 1.6 6.4 0.00 0.00 0.00 37 1012.3
20260504221037 24 220 0.0 14.5 0.00 0.00 0.00 37 1012.3
20260504220602 24 257 1.6 14.5 0.00 0.00 0.00 39 1012.3
20260504220026 25 324 1.6 12.9 0.00 0.00 0.00 37 1012.5
20260504215531 25 163 3.2 12.9 0.00 0.00 0.00 36 1012.6
20260504215035 25 346 0.0 9.7 0.00 0.00 0.00 38 1012.4
20260504214523 25 168 1.6 12.9 0.00 0.00 0.00 37 1012.4
20260504214028 25 128 4.8 12.9 0.00 0.00 0.00 35 1012.4
20260504213533 25 128 1.6 11.3 0.00 0.00 0.00 37 1012.4
20260504213037 25 165 1.6 9.7 0.00 0.00 0.00 36 1012.5
20260504212541 26 239 0.0 8.0 0.00 0.00 0.00 36 1012.4
20260504212024 26 312 1.6 8.0 0.00 0.00 0.00 35 1012.3
20260504211547 26 261 1.6 6.4 0.00 0.00 0.00 34 1012.4
20260504211031 26 304 0.0 14.5 0.00 0.00 0.00 35 1012.3
20260504210536 26 225 1.6 14.5 0.00 0.00 0.00 36 1012.3
20260504210040 26 111 1.6 9.7 0.00 0.00 0.00 36 1012.4
20260504205523 26 240 0.0 9.7 0.00 0.00 0.00 36 1012.4
20260504205029 26 290 0.0 12.9 0.00 0.00 0.00 34 1012.5
20260504204537 27 169 3.2 12.9 0.00 0.00 0.00 34 1012.6
20260504204041 27 110 0.0 6.4 0.00 0.00 0.00 35 1012.6
20260504203545 27 121 1.6 6.4 0.00 0.00 0.00 36 1012.6
20260504203028 27 302 1.6 11.3 0.00 0.00 0.00 34 1012.6
20260504202533 27 319 3.2 11.3 0.00 0.00 0.00 33 1012.7
20260504202037 27 205 1.6 9.7 0.00 0.00 0.00 34 1012.6
20260504201541 27 138 1.6 9.7 0.00 0.00 0.00 35 1012.7
20260504201025 27 155 1.6 4.8 0.00 0.00 0.00 34 1012.7
20260504200529 27 128 0.0 8.0 0.00 0.00 0.00 33 1012.8
20260504200034 27 112 1.6 8.0 0.00 0.00 0.00 36 1012.9
20260504195538 27 80 0.0 8.0 0.00 0.00 0.00 33 1012.8
20260504195027 27 286 1.6 8.0 0.00 0.00 0.00 34 1012.8
20260504194531 27 81 1.6 11.3 0.00 0.00 0.00 34 1013.0
20260504194032 27 296 3.2 11.3 0.00 0.00 0.00 33 1013.1
20260504193537 27 139 3.2 11.3 0.00 0.00 0.00 34 1013.1
20260504193041 27 306 1.6 8.0 0.00 0.00 0.00 35 1013.3
20260504192525 27 83 3.2 8.0 0.00 0.00 0.00 32 1013.3
20260504192028 27 260 1.6 8.0 0.00 0.00 0.00 34 1013.5
20260504191533 27 239 0.0 6.4 0.00 0.00 0.00 34 1013.5
20260504191056 26 140 1.6 9.7 0.00 0.00 0.00 32 1013.6
20260504190538 26 126 1.6 11.3 0.00 0.00 0.00 32 1013.7
20260504190042 27 201 1.6 11.3 0.00 0.00 0.00 32 1013.8
20260504185532 26 302 1.6 9.7 0.00 0.00 0.00 31 1013.8
20260504185035 26 184 3.2 12.9 0.00 0.00 0.00 33 1013.8
20260504184543 26 289 4.8 12.9 0.00 0.00 0.00 30 1013.8
20260504184027 26 309 3.2 14.5 0.00 0.00 0.00 30 1013.7
20260504183531 26 180 3.2 14.5 0.00 0.00 0.00 30 1013.8
20260504183035 26 141 1.6 11.3 0.00 0.00 0.00 32 1013.8
20260504182540 26 304 3.2 11.3 0.00 0.00 0.00 31 1013.9
20260504182023 26 157 0.0 8.0 0.00 0.00 0.00 32 1014.0
20260504181529 26 250 1.6 9.7 0.00 0.00 0.00 32 1014.1
20260504181033 26 123 1.6 9.7 0.00 0.00 0.00 35 1014.2
20260504180537 26 215 0.0 9.7 0.00 0.00 0.00 35 1014.3
20260504180042 25 193 1.6 6.4 0.00 0.00 0.00 32 1014.3
20260504175531 25 256 1.6 8.0 0.00 0.00 0.00 35 1014.2
20260504175034 25 111 1.6 11.3 0.00 0.00 0.00 32 1014.3
20260504174600 25 130 3.2 11.3 0.00 0.00 0.00 33 1014.3
20260504174042 25 138 3.2 6.4 0.00 0.00 0.00 34 1014.3
20260504173546 25 142 0.0 6.4 0.00 0.00 0.00 31 1014.4
20260504173030 25 136 1.6 4.8 0.00 0.00 0.00 36 1014.5
20260504172533 25 333 1.6 9.7 0.00 0.00 0.00 35 1014.6
20260504172039 25 192 1.6 9.7 0.00 0.00 0.00 34 1014.6
20260504171523 25 147 3.2 8.0 0.00 0.00 0.00 34 1014.6
20260504171027 25 221 1.6 9.7 0.00 0.00 0.00 36 1014.6
20260504170532 25 17 3.2 9.7 0.00 0.00 0.00 35 1014.8
20260504151028 23 327 1.6 6.4 0.00 0.00 0.00 39 1016.1
20260504150533 23 91 0.0 3.2 0.00 0.00 0.00 43 1016.1
20260504141037 20 140 0.0 6.4 0.00 0.00 0.00 51 1016.0
20260504140541 20 306 0.0 6.4 0.00 0.00 0.00 54 1016.0
20260504130532 13 163 0.0 3.2 0.00 0.00 0.00 83 1016.1
20260504110536 3 305 0.0 0.0 0.00 0.00 0.00 86 1016.6
20260504100526 3 305 0.0 0.0 0.00 0.00 0.00 84 1016.3